Yatton Keynell, United Kingdom

6:44 PM GMT on February 20, 2019 (GMT +0000)
Yatton Keynell

Weather History for 03740 - May, 1998

Change the Weather History Date:

Monday, May 4, 1998

  Actual Average Record
Temperature  
Mean Temperature 46 °F -  
Max Temperature 57 °F 61 °F - ()
Min Temperature 35 °F 45 °F - ()
Degree Days  
Heating Degree Days 19    
Moisture  
Dew Point 40 °F    
Average Humidity 74    
Maximum Humidity 93    
Minimum Humidity 51    
Precipitation  
Precipitation 0.00 in 0.07 in - ()
Sea Level Pressure  
Sea Level Pressure 30.08 in    
Wind  
Wind Speed 5 mph ()    
Max Wind Speed 10 mph    
Max Gust Speed -    
Visibility 5.6 miles    
Events      
T = Trace of Precipitation, MM = Missing Value Source: Averaged Metar Reports

Daily Weather History Graph

Daily Weather History Graph

Search for Another Location

Airport or City:

Astronomy

May. 04, 1998 Rise Set
Actual Time 5:34 AM BST 8:35 PM BST
Civil Twilight 4:56 AM BST 9:14 PM BST
Nautical Twilight 4:05 AM BST 10:05 PM BST
Astronomical Twilight 3:01 AM BST 11:11 PM BST
Moon 1:11 PM BST (5/4) 2:58 AM BST (5/4)
Length of Visible Light 16h 18m
Length of Day
15h 00m
First Quarter, 60% of the Moon is Illuminated
May 4
First Quarter
May 11
Full
May 19
Last Quarter
May 25
New
Jun 2
First Quarter

Hourly Weather History & Observations

Time (BST) Temp. Windchill Dew Point Humidity Pressure Visibility Wind Dir Wind Speed Gust Speed Precip Events Conditions
12:50 AM 41.0 °F 39.0 °F 35.6 °F 81% 30.15 in - North 3.5 mph - N/A   Clear
1:50 AM 39.2 °F - 35.6 °F 87% 30.15 in - NNE 2.3 mph - N/A   Clear
2:50 AM 39.2 °F - 35.6 °F 87% 30.15 in - Calm Calm - N/A   Clear
3:50 AM 37.4 °F - 33.8 °F 87% 30.12 in 5.0 mi Calm Calm - N/A   Haze
4:50 AM 35.6 °F 32.8 °F 33.8 °F 93% 30.12 in 3.7 mi NW 3.5 mph - N/A   Haze
5:50 AM 35.6 °F 30.7 °F 33.8 °F 93% 30.12 in 3.1 mi NW 5.8 mph - N/A   Haze
6:50 AM 39.2 °F 34.2 °F 35.6 °F 87% 30.12 in 3.7 mi NW 6.9 mph - N/A   Haze
7:50 AM 44.6 °F 41.4 °F 37.4 °F 76% 30.12 in 5.0 mi WNW 5.8 mph - N/A   Haze
8:50 AM 46.4 °F 43.5 °F 37.4 °F 71% 30.12 in - WNW 5.8 mph - N/A   Clear
9:50 AM 50.0 °F - 39.2 °F 66% 30.09 in - NNW 10.4 mph - N/A   Clear
10:50 AM 51.8 °F - 39.2 °F 62% 30.09 in 6.2 mi NNW 8.1 mph - N/A   Partly Cloudy
11:50 AM 55.4 °F - 41.0 °F 58% 30.09 in 6.2 mi NNW 6.9 mph - N/A   Partly Cloudy
12:50 PM 55.4 °F - 41.0 °F 58% 30.09 in 6.2 mi North 9.2 mph - N/A   Scattered Clouds
1:50 PM 57.2 °F - 39.2 °F 51% 30.06 in 6.2 mi NNW 8.1 mph - N/A   Mostly Cloudy
2:50 PM 57.2 °F - 42.8 °F 59% 30.06 in 6.2 mi NNW 8.1 mph - N/A   Mostly Cloudy
3:50 PM 57.2 °F - 42.8 °F 59% 30.06 in 6.2 mi NNW 9.2 mph - N/A   Mostly Cloudy
4:50 PM 55.4 °F - 42.8 °F 63% 30.04 in 6.2 mi NW 8.1 mph - N/A   Mostly Cloudy
5:50 PM 55.4 °F - 44.6 °F 67% 30.04 in 6.2 mi NW 6.9 mph - N/A   Overcast
6:50 PM 53.6 °F - 44.6 °F 72% 30.04 in 6.2 mi WNW 6.9 mph - N/A   Mostly Cloudy
7:50 PM 53.6 °F - 46.4 °F 77% 30.04 in 6.2 mi WNW 5.8 mph - N/A   Mostly Cloudy
8:50 PM 50.0 °F - 44.6 °F 82% 30.04 in 6.2 mi West 5.8 mph - N/A   Partly Cloudy
9:50 PM 50.0 °F - 44.6 °F 82% 30.04 in 6.2 mi WSW 6.9 mph - N/A   Mostly Cloudy
10:50 PM 50.0 °F - 44.6 °F 82% 30.04 in 6.2 mi WSW 8.1 mph - N/A   Partly Cloudy
11:50 PM 48.2 °F - 44.6 °F 87% 30.04 in - WSW 4.6 mph - N/A   Clear